User: anonymous   Login
Location: Bowman Observatory
(41.0326°N, 73.6210°W)
Time: 14:37:43
(UTC-04:00)
Language:

Cosmos 2298 Rocket - Orbit

View from above orbital plane
View from above orbital plane
View from above satellite
View from above satellite

Ground track
Ground track

The orbit data is extracted from the following two-line orbital elements,

1 23432U 94083B   16179.60365828 -.00000002  00000-0  86268-5 0  9998
2 23432  74.0315 226.3657 0004986 173.0069 348.9815 14.33446371125495
Epoch (UTC): 27 June 2016 14:29:16
Eccentricity: 0.0004986
inclination: 74.0315°
perigee height: 776 km
apogee height: 784 km
right ascension of ascending node: 226.3657°
argument of perigee: 173.0069°
revolutions per day: 14.33446371
mean anomaly at epoch: 348.9815°
orbit number at epoch: 12549

The dashed part of the orbit path shows where the satellite is in the earth's shadow,  

DLR